Location: Saint-Palais-sur-Mer
(45.6429°N, 1.0859°W)
Time: 09:06:12
(UTC+01:00)

Transit 2A - All Passes

Search period start: 15 February 2026 00:00
Search period end: 25 February 2026 00:00
Orbit: 589 x 955 km, 66.7° (Epoch: 13 February)

Date Brightness Start Highest point End Pass type
(mag) Time Alt. Az. Time Alt. Az. Time Alt. Az.
15 Feb - 12:38:46 10° SE 12:41:57 15° E 12:45:13 10° ENE daylight
15 Feb - 14:17:56 10° SSW 14:24:04 79° ESE 14:30:26 10° NE daylight
15 Feb - 16:02:37 10° W 16:07:53 27° NW 16:13:13 10° NNE daylight
15 Feb - 17:51:10 10° NW 17:53:16 12° NNW 17:55:21 10° N daylight
15 Feb - 19:37:44 10° N 19:39:26 11° NNE 19:41:07 10° NNE visible
15 Feb - 21:19:51 10° NNW 21:24:53 25° NE 21:29:37 10° E visible
15 Feb - 23:02:39 10° NW 23:08:44 80° WSW 23:14:14 10° SSE visible
16 Feb - 00:48:12 10° WNW 00:50:42 13° W 00:53:06 10° SW night (unlit)
16 Feb - 13:41:49 10° SSW 13:47:46 57° ESE 13:53:58 10° NE daylight
16 Feb - 15:25:34 10° WSW 15:31:13 35° NW 15:36:59 10° NNE daylight
16 Feb - 17:13:22 10° NW 17:16:18 13° NNW 17:19:14 10° N daylight
16 Feb - 19:01:49 10° N 19:02:25 10° N 19:03:02 10° NNE visible
16 Feb - 20:43:40 10° NNW 20:48:08 20° NNE 20:52:23 10° E visible
16 Feb - 22:26:17 10° NNW 22:32:22 74° NE 22:37:53 10° SE visible
17 Feb - 00:10:37 10° WNW 00:14:43 20° WSW 00:18:34 10° SSW visible
17 Feb - 13:05:56 10° S 13:11:33 40° ESE 13:17:24 10° NE daylight
17 Feb - 14:48:41 10° WSW 14:54:38 46° NW 15:00:44 10° NNE daylight
17 Feb - 16:35:41 10° WNW 16:39:24 16° NNW 16:43:05 10° N daylight
17 Feb - 20:07:30 10° NNW 20:11:19 17° NNE 20:14:59 10° ENE visible
17 Feb - 21:49:57 10° NNW 21:55:55 53° NE 22:01:20 10° SE visible
17 Feb - 23:33:39 10° NW 23:38:40 29° WSW 23:43:17 10° SSW visible
18 Feb - 12:30:20 10° SSE 12:35:24 28° ESE 12:40:39 10° NE daylight
18 Feb - 14:12:01 10° SW 14:18:08 62° NW 14:24:26 10° NNE daylight
18 Feb - 15:58:10 10° WNW 16:02:33 19° NNW 16:06:56 10° NNE daylight
18 Feb - 19:31:21 10° N 19:34:25 14° NNE 19:37:25 10° NE visible
18 Feb - 21:13:40 10° NNW 21:19:22 39° NE 21:24:36 10° ESE visible
18 Feb - 22:56:57 10° NW 23:02:32 43° WSW 23:07:37 10° S visible
19 Feb - 11:55:09 10° SSE 11:59:21 19° ESE 12:03:38 10° ENE daylight
19 Feb - 13:35:31 10° SW 13:41:42 84° WNW 13:48:06 10° NNE daylight
19 Feb - 15:20:49 10° W 15:25:46 24° NW 15:30:45 10° NNE daylight
19 Feb - 17:09:55 10° NNW 17:11:20 11° N 17:12:44 10° N daylight
19 Feb - 18:55:15 10° N 18:57:29 12° NNE 18:59:40 10° NE daylight
19 Feb - 20:37:25 10° NNW 20:42:44 30° NE 20:47:40 10° E visible
19 Feb - 22:20:24 10° NW 22:26:18 62° WSW 22:31:39 10° SSE visible
20 Feb - 11:20:45 10° SE 11:23:21 13° E 11:25:59 10° ENE daylight
20 Feb - 12:59:14 10° SSW 13:05:21 72° ESE 13:11:41 10° NE daylight
20 Feb - 14:43:38 10° W 14:49:03 30° NW 14:54:32 10° NNE daylight
20 Feb - 16:32:00 10° NW 16:34:20 12° NNW 16:36:40 10° N daylight
20 Feb - 18:19:13 10° N 18:20:29 11° N 18:21:45 10° NNE daylight
20 Feb - 20:01:12 10° NNW 20:06:02 23° NE 20:10:34 10° E visible
20 Feb - 21:43:57 10° NNW 21:50:00 88° WSW 21:55:27 10° SSE visible
20 Feb - 23:29:01 10° WNW 23:32:04 15° W 23:34:58 10° SW visible
21 Feb - 12:23:10 10° S 12:29:05 51° ESE 12:35:12 10° NE daylight
21 Feb - 14:06:38 10° WSW 14:12:25 38° NW 14:18:18 10° NNE daylight
21 Feb - 15:54:13 10° NW 15:57:24 14° NNW 16:00:33 10° N daylight
21 Feb - 19:25:02 10° NNW 19:29:15 19° NNE 19:33:16 10° ENE visible
21 Feb - 21:07:35 10° NNW 21:13:36 66° NE 21:19:03 10° SE visible
21 Feb - 22:51:41 10° WNW 22:56:04 22° WSW 23:00:08 10° SSW visible
22 Feb - 11:47:22 10° S 11:52:53 36° ESE 11:58:34 10° NE daylight
22 Feb - 13:29:49 10° SW 13:35:51 50° NW 13:42:02 10° NNE daylight
22 Feb - 15:16:35 10° WNW 15:20:30 17° NNW 15:24:24 10° NNE daylight
22 Feb - 18:48:52 10° N 18:52:24 15° NNE 18:55:48 10° ENE daylight
22 Feb - 20:31:16 10° NNW 20:37:07 48° NE 20:42:26 10° ESE visible
22 Feb - 22:14:49 10° NW 22:19:59 32° WSW 22:24:43 10° S visible
23 Feb - 11:11:53 10° SSE 11:16:45 25° ESE 11:21:46 10° NE daylight
23 Feb - 12:53:11 10° SW 12:59:22 68° NW 13:05:43 10° NNE daylight
23 Feb - 14:39:06 10° W 14:43:40 20° NNW 14:48:14 10° NNE daylight
23 Feb - 16:29:00 10° N 16:29:24 10° N 16:29:48 10° N daylight
23 Feb - 18:12:45 10° N 18:15:30 13° NNE 18:18:10 10° NE daylight
23 Feb - 19:55:00 10° NNW 20:00:32 36° NE 20:05:38 10° ESE visible
23 Feb - 21:38:10 10° NW 21:43:49 48° WSW 21:48:57 10° S visible
24 Feb - 10:36:52 10° SE 10:40:43 17° ESE 10:44:37 10° ENE daylight
24 Feb - 12:16:46 10° SSW 12:22:58 89° ESE 12:29:21 10° NNE daylight
24 Feb - 14:01:48 10° W 14:06:54 25° NW 14:12:02 10° NNE daylight
24 Feb - 15:50:43 10° NNW 15:52:23 11° NNW 15:54:02 10° N daylight
24 Feb - 17:36:41 10° N 17:38:32 11° NNE 17:40:22 10° NNE daylight
24 Feb - 19:18:45 10° NNW 19:23:52 27° NE 19:28:38 10° E visible
24 Feb - 21:01:39 10° NW 21:07:34 70° WSW 21:12:54 10° SSE visible
24 Feb - 22:48:30 10° W 22:49:22 10° W 22:50:13 10° WSW visible
